• In Hungary
  • List of Countries
  • For 7 days
  • Water Temperature
  • Satellite Maps
  • Weather Map
  • News
  • Weather Widgets
  • user-avatar
    Login

    Hourly Weather Vysokoe

    Today, 20 October, Saturday

    Time Temperature Precipitation Wind Pressure Humidity
    00:00 +12°C° 0 mm 2 mps 740 mmHg 91%
    01:00 +12°C° 0 mm 2 mps 740 mmHg 93%
    02:00 +10°C° 0 mm 2 mps 740 mmHg 95%
    03:00 +10°C° 0 mm 2 mps 740 mmHg 95%
    04:00 +9°C° 0 mm 3 mps 740 mmHg 96%
    05:00 +9°C° 0 mm 3 mps 740 mmHg 96%
    06:00 +9°C° 0 mm 3 mps 741 mmHg 94%
    07:00 +9°C° 0 mm 3 mps 741 mmHg 91%
    08:00 +10°C° 0 mm 4 mps 741 mmHg 88%
    09:00 +10°C° 0 mm 4 mps 742 mmHg 81%
    10:00 +11°C° 0 mm 4 mps 742 mmHg 75%
    11:00 +12°C° 0 mm 4 mps 742 mmHg 68%
    12:00 +12°C° 0 mm 4 mps 742 mmHg 65%
    13:00 +12°C° 0 mm 3 mps 742 mmHg 61%
    14:00 +13°C° 0 mm 3 mps 742 mmHg 57%
    15:00 +11°C° 0 mm 3 mps 742 mmHg 60%
    16:00 +10°C° 0 mm 3 mps 742 mmHg 63%
    17:00 +9°C° 0 mm 3 mps 742 mmHg 66%
    18:00 +9°C° 0 mm 3 mps 742 mmHg 68%
    19:00 +8°C° 0 mm 3 mps 742 mmHg 70%
    20:00 +7°C° 0 mm 3 mps 743 mmHg 72%
    21:00 +7°C° 0 mm 3 mps 743 mmHg 73%
    22:00 +5°C° 0 mm 3 mps 743 mmHg 75%
    23:00 +5°C° 0 mm 3 mps 743 mmHg 77%

    Tomorrow, 21 October, Sunday

    Time Temperature Precipitation Wind Pressure Humidity
    00:00 +6°C° 0 mm 2 mps 743 mmHg 78%
    01:00 +5°C° 0 mm 2 mps 743 mmHg 79%
    02:00 +5°C° 0 mm 2 mps 743 mmHg 80%
    03:00 +4°C° 0 mm 3 mps 743 mmHg 82%
    04:00 +3°C° 0 mm 3 mps 743 mmHg 83%
    05:00 +3°C° 0 mm 3 mps 743 mmHg 84%
    06:00 +4°C° 0 mm 3 mps 744 mmHg 81%
    07:00 +4°C° 0 mm 3 mps 744 mmHg 79%
    08:00 +5°C° 0 mm 3 mps 744 mmHg 77%
    09:00 +7°C° 0 mm 3 mps 745 mmHg 72%
    10:00 +7°C° 0 mm 4 mps 745 mmHg 67%
    11:00 +8°C° 0 mm 4 mps 745 mmHg 62%
    12:00 +10°C° 0 mm 4 mps 745 mmHg 61%
    13:00 +10°C° 0 mm 4 mps 745 mmHg 60%
    14:00 +10°C° 0 mm 4 mps 745 mmHg 60%
    15:00 +9°C° 0 mm 3 mps 745 mmHg 65%
    16:00 +8°C° 0 mm 3 mps 745 mmHg 70%
    17:00 +7°C° 0 mm 3 mps 745 mmHg 75%
    18:00 +7°C° 0 mm 3 mps 746 mmHg 77%
    19:00 +5°C° 0 mm 3 mps 746 mmHg 79%
    20:00 +5°C° 0 mm 3 mps 746 mmHg 80%
    21:00 +4°C° 0 mm 3 mps 746 mmHg 81%
    22:00 +4°C° 0 mm 3 mps 746 mmHg 82%
    23:00 +4°C° 0 mm 3 mps 746 mmHg 83%

    Day after tomorrow, 22 October, Monday

    Time Temperature Precipitation Wind Pressure Humidity
    00:00 +3°C° 0 mm 3 mps 746 mmHg 85%
    01:00 +3°C° 0 mm 3 mps 746 mmHg 86%
    02:00 +3°C° 0 mm 3 mps 746 mmHg 87%
    03:00 +3°C° 0 mm 3 mps 746 mmHg 88%
    04:00 +2°C° 0 mm 3 mps 746 mmHg 89%
    05:00 +2°C° 0 mm 3 mps 746 mmHg 91%
    06:00 +3°C° 0 mm 3 mps 746 mmHg 88%
    07:00 +3°C° 0 mm 3 mps 746 mmHg 85%
    08:00 +4°C° 0 mm 3 mps 746 mmHg 82%
    09:00 +5°C° 0 mm 3 mps 746 mmHg 77%
    10:00 +8°C° 0 mm 3 mps 746 mmHg 71%
    11:00 +9°C° 0 mm 3 mps 746 mmHg 66%
    12:00 +10°C° 0 mm 3 mps 745 mmHg 66%
    13:00 +11°C° 0 mm 3 mps 745 mmHg 66%
    14:00 +11°C° 0 mm 3 mps 745 mmHg 66%
    15:00 +10°C° 0 mm 2 mps 744 mmHg 71%
    16:00 +10°C° 0 mm 2 mps 744 mmHg 76%
    17:00 +9°C° 0 mm 2 mps 744 mmHg 80%
    18:00 +8°C° 0 mm 2 mps 743 mmHg 83%
    19:00 +8°C° 0 mm 2 mps 743 mmHg 86%
    20:00 +8°C° 0 mm 2 mps 743 mmHg 88%
    21:00 +8°C° 0.1 mm 2 mps 742 mmHg 88%
    22:00 +8°C° 0.1 mm 2 mps 742 mmHg 88%
    23:00 +9°C° 0.1 mm 2 mps 742 mmHg 88%

    23 October, Tuesday

    Time Temperature Precipitation Wind Pressure Humidity
    00:00 +9°C° 0.8 mm 2 mps 741 mmHg 90%
    01:00 +9°C° 0.8 mm 2 mps 741 mmHg 92%
    02:00 +9°C° 0.8 mm 2 mps 740 mmHg 94%
    03:00 +8°C° 1.3 mm 2 mps 739 mmHg 95%
    04:00 +8°C° 1.3 mm 2 mps 739 mmHg 96%
    05:00 +8°C° 1.3 mm 2 mps 738 mmHg 96%
    06:00 +8°C° 0.4 mm 2 mps 738 mmHg 96%
    07:00 +8°C° 0.4 mm 2 mps 737 mmHg 95%
    08:00 +9°C° 0.4 mm 2 mps 737 mmHg 94%
    09:00 +9°C° 0.1 mm 2 mps 737 mmHg 92%
    10:00 +9°C° 0.1 mm 3 mps 736 mmHg 90%
    11:00 +10°C° 0.1 mm 3 mps 736 mmHg 88%
    12:00 +9°C° 0.4 mm 3 mps 736 mmHg 88%
    13:00 +9°C° 0.4 mm 3 mps 735 mmHg 88%
    14:00 +8°C° 0.4 mm 4 mps 735 mmHg 87%
    15:00 +7°C° 0.2 mm 4 mps 735 mmHg 85%
    16:00 +7°C° 0.2 mm 4 mps 734 mmHg 83%
    17:00 +6°C° 0.2 mm 4 mps 734 mmHg 81%
    18:00 +6°C° 0 mm 4 mps 734 mmHg 81%
    19:00 +5°C° 0 mm 4 mps 734 mmHg 81%
    20:00 +4°C° 0 mm 3 mps 733 mmHg 81%
    21:00 +4°C° 0 mm 4 mps 733 mmHg 82%
    22:00 +4°C° 0 mm 4 mps 733 mmHg 83%
    23:00 +4°C° 0 mm 4 mps 732 mmHg 84%

    24 October, Wednesday

    Time Temperature Precipitation Wind Pressure Humidity
    00:00 +4°C° 0 mm 4 mps 732 mmHg 84%
    01:00 +4°C° 0 mm 4 mps 731 mmHg 85%
    02:00 +3°C° 0 mm 5 mps 730 mmHg 85%
    03:00 +3°C° 0 mm 5 mps 730 mmHg 86%
    04:00 +3°C° 0 mm 5 mps 729 mmHg 86%
    05:00 +3°C° 0 mm 5 mps 728 mmHg 87%
    06:00 +3°C° 0 mm 6 mps 728 mmHg 86%
    07:00 +3°C° 0 mm 7 mps 727 mmHg 85%
    08:00 +3°C° 0 mm 7 mps 726 mmHg 84%
    09:00 +4°C° 0 mm 8 mps 725 mmHg 79%
    10:00 +4°C° 0 mm 8 mps 725 mmHg 75%
    11:00 +5°C° 0 mm 9 mps 724 mmHg 71%
    12:00 +5°C° 0.1 mm 9 mps 723 mmHg 71%
    13:00 +6°C° 0.1 mm 9 mps 722 mmHg 71%
    14:00 +6°C° 0.1 mm 9 mps 721 mmHg 71%
    15:00 +6°C° 0.4 mm 9 mps 721 mmHg 73%
    16:00 +6°C° 0.4 mm 9 mps 720 mmHg 75%
    17:00 +6°C° 0.4 mm 9 mps 719 mmHg 78%
    18:00 +5°C° 0.3 mm 9 mps 719 mmHg 79%
    19:00 +5°C° 0.3 mm 8 mps 718 mmHg 79%
    20:00 +5°C° 0.3 mm 8 mps 718 mmHg 80%
    21:00 +4°C° 0 mm 7 mps 718 mmHg 80%
    22:00 +4°C° 0 mm 7 mps 719 mmHg 80%
    23:00 +3°C° 0 mm 6 mps 719 mmHg 80%

    25 October, Thursday

    Time Temperature Precipitation Wind Pressure Humidity
    00:00 +2°C° 0 mm 6 mps 719 mmHg 79%
    01:00 +2°C° 0 mm 6 mps 719 mmHg 77%
    02:00 +1°C° 0 mm 6 mps 720 mmHg 76%
    03:00 -1°C° 0 mm 6 mps 720 mmHg 77%
    04:00 -1°C° 0 mm 6 mps 720 mmHg 79%
    05:00 -2°C° 0 mm 6 mps 720 mmHg 80%
    06:00 -2°C° 0 mm 6 mps 720 mmHg 79%
    07:00 -1°C° 0 mm 7 mps 720 mmHg 79%
    08:00 -1°C° 0 mm 7 mps 720 mmHg 78%
    09:00 0°C° 0.1 mm 7 mps 720 mmHg 78%
    10:00 0°C° 0.1 mm 7 mps 720 mmHg 77%
    11:00 +2°C° 0.1 mm 7 mps 720 mmHg 77%
    12:00 +2°C° 0.2 mm 7 mps 720 mmHg 77%
    13:00 +2°C° 0.2 mm 7 mps 721 mmHg 77%
    14:00 +3°C° 0.2 mm 7 mps 721 mmHg 77%
    15:00 +2°C° 0.1 mm 6 mps 722 mmHg 78%
    16:00 +2°C° 0.1 mm 6 mps 722 mmHg 78%
    17:00 +2°C° 0.1 mm 5 mps 723 mmHg 79%
    18:00 +2°C° 0.2 mm 5 mps 723 mmHg 79%
    19:00 +1°C° 0.2 mm 5 mps 724 mmHg 78%
    20:00 +1°C° 0.2 mm 5 mps 724 mmHg 78%
    21:00 +1°C° 0 mm 5 mps 724 mmHg 77%
    22:00 +1°C° 0 mm 4 mps 725 mmHg 77%
    23:00 +1°C° 0 mm 4 mps 725 mmHg 77%
    Show more